Weather History for Dutch Harbor, AK

Change the Weather History Date:

Thursday, October 25, 2012

  Actual Average Record
Temperature  
Mean Temperature 44 °F -  
Max Temperature 46 °F 45 °F 58 °F (1991)
Min Temperature 41 °F 31 °F 15 °F (1991)
Degree Days  
Heating Degree Days 22    
Moisture  
Dew Point 33 °F    
Average Humidity 69    
Maximum Humidity 81    
Minimum Humidity 60    
Precipitation  
Precipitation 0.02 in - - ()
Sea Level Pressure  
Sea Level Pressure 30.23 in    
Wind  
Wind Speed 6 mph (NE)    
Max Wind Speed 12 mph    
Max Gust Speed -    
Visibility 10 miles    
Events Rain    
Averages and records for this station are not official NWS values.
T = Trace of Precipitation, MM = Missing Value Source: NWS Daily Summary

Daily Weather History Graph

Daily Weather History Graph

Search for Another Location

Airport:

Trip Planner

Search our weather history database for the weather conditions in past years. The results will help you decide how hot, cold, wet, or windy it might be!

Date:

Astronomy

Oct. 25, 2012 Rise Set
Actual Time 9:54 AM AKDT 7:45 PM AKDT
Civil Twilight 9:17 AM AKDT 8:21 PM AKDT
Nautical Twilight 8:36 AM AKDT 9:02 PM AKDT
Astronomical Twilight 7:55 AM AKDT 9:43 PM AKDT
Moon 6:02 PM AKDT 5:33 AM AKDT
Length of Visible Light 11h 03m
Length of Day
9h 50m
Waxing Gibbous, 85% of the Moon is Illuminated
Oct 25
Waxing Gibbous
Oct 29
Full
Nov 6
Last Quarter
Nov 13
New
Nov 20
First Quarter

Hourly Weather History & Observations

Time (AKDT) Temp. Windchill Dew Point Humidity Pressure Visibility Wind Dir Wind Speed Gust Speed Precip Events Conditions
12:56 AM 41.0 °F 36.4 °F 33.1 °F 73% 30.19 in 10.0 mi NNE 6.9 mph - N/A   Overcast
1:56 AM 41.0 °F 37.1 °F 30.9 °F 67% 30.19 in 10.0 mi NNE 5.8 mph - N/A   Overcast
2:56 AM 41.0 °F 37.1 °F 30.9 °F 67% 30.20 in 10.0 mi North 5.8 mph - N/A   Overcast
3:56 AM 41.0 °F 38.0 °F 30.9 °F 67% 30.21 in 10.0 mi NE 4.6 mph - N/A   Overcast
5:56 AM 41.0 °F - 32.0 °F 70% 30.22 in 10.0 mi Calm Calm - N/A   Overcast
6:16 AM 42.8 °F - 33.8 °F 70% 30.20 in 10.0 mi Calm Calm - N/A   Overcast
7:56 AM 42.1 °F 40.2 °F 32.0 °F 67% 30.23 in 10.0 mi NE 3.5 mph - N/A   Overcast
8:56 AM 43.0 °F 40.3 °F 33.1 °F 68% 30.24 in 10.0 mi NNE 4.6 mph - N/A   Overcast
9:31 AM 42.8 °F 38.6 °F 33.8 °F 70% 30.23 in 10.0 mi ENE 6.9 mph - 0.00 in   Overcast
9:56 AM 43.0 °F 40.3 °F 33.1 °F 68% 30.26 in 10.0 mi Variable 4.6 mph - 0.00 in   Overcast
10:08 AM 42.8 °F 40.1 °F 33.8 °F 70% 30.24 in 10.0 mi Variable 4.6 mph - N/A   Overcast
10:56 AM 43.0 °F 38.2 °F 32.0 °F 65% 30.26 in 10.0 mi NNE 8.1 mph - N/A   Overcast
11:56 AM 44.1 °F 41.5 °F 34.0 °F 68% 30.27 in 10.0 mi NNE 4.6 mph - N/A   Overcast
12:56 PM 44.1 °F 41.5 °F 35.1 °F 71% 30.27 in 10.0 mi East 4.6 mph - N/A   Overcast
1:56 PM 44.1 °F 41.5 °F 33.1 °F 65% 30.27 in 10.0 mi Variable 4.6 mph - N/A   Mostly Cloudy
2:56 PM 45.0 °F 41.2 °F 33.1 °F 63% 30.26 in 10.0 mi East 6.9 mph - N/A   Mostly Cloudy
3:56 PM 46.0 °F 40.6 °F 34.0 °F 63% 30.24 in 10.0 mi East 11.5 mph - N/A   Mostly Cloudy
4:56 PM 44.1 °F 38.1 °F 34.0 °F 68% 30.22 in 10.0 mi North 11.5 mph - N/A   Mostly Cloudy
5:56 PM 43.0 °F 40.3 °F 34.0 °F 71% 30.24 in 10.0 mi ENE 4.6 mph - 0.00 in Rain Light Rain
6:24 PM 42.8 °F 38.6 °F 35.6 °F 76% 30.23 in 10.0 mi Variable 6.9 mph - 0.00 in Rain Light Rain
6:40 PM 41.0 °F - 35.6 °F 81% 30.22 in 9.0 mi Calm Calm - 0.01 in Rain Light Rain
6:56 PM 42.1 °F 36.6 °F 34.0 °F 73% 30.24 in 10.0 mi NE 9.2 mph - 0.02 in   Overcast
8:56 PM 42.1 °F 36.6 °F 34.0 °F 73% 30.22 in 10.0 mi NNE 9.2 mph - 0.00 in   Overcast
9:56 PM 42.1 °F 40.2 °F 33.1 °F 70% 30.21 in 10.0 mi ENE 3.5 mph - N/A   Overcast
10:56 PM 42.1 °F 37.1 °F 32.0 °F 67% 30.20 in 10.0 mi NNE 8.1 mph - 0.00 in   Overcast
11:56 PM 42.1 °F 37.7 °F 28.9 °F 60% 30.19 in 10.0 mi Variable 6.9 mph - N/A   Mostly Cloudy